Location: Lecco
(45.8566°N, 9.3977°E)
Time: 16:40:37
(UTC+02:00)

ISS - Pass Details

Date: 18 July 2018
Orbit: 402 x 408 km, 51.6° (Epoch: 20 July)

Event Time Altitude Azimuth Distance (km) Brightness Sun altitude
Rises 03:57:56 0° 297° (WNW) 2,332 -0.1 -15.0°
Reaches altitude 10° 04:00:06 10° 304° (NW) 1,471 -1.0 -14.8°
Maximum altitude 04:03:15 42° 17° (NNE) 599 -2.5 -14.5°
Drops below altitude 10° 04:06:24 10° 90° (E) 1,469 -0.5 -14.1°
Sets 04:08:33 0° 98° (E) 2,328 0.5 -13.9°
